Time,TemperatureF,DewpointF,PressureIn,WindDirection,WindDirectionDegrees,WindSpeedMPH,WindSpeedGustMPH,Humidity,HourlyPrecipIn,Conditions,Clouds,dailyrainin,SoftwareType,DateUTC
2013-10-10 06:08:00,48.9,37.7,30.11,SSW,202,8.3,-999.0,65,-99.99,,,0.00,Acu-Link.com,2013-10-10 10:08:00,
2013-10-10 06:23:00,48.4,37.6,30.12,SSW,202,6.3,-999.0,66,-99.99,,,0.00,Acu-Link.com,2013-10-10 10:23:00,
2013-10-10 06:38:00,47.8,37.4,30.11,SW,225,4.3,-999.0,67,-99.99,,,0.00,Acu-Link.com,2013-10-10 10:38:00,
2013-10-10 06:53:00,48.7,37.5,30.11,SSW,202,3.8,-999.0,65,-99.99,,,0.00,Acu-Link.com,2013-10-10 10:53:00,
2013-10-10 07:08:00,47.7,37.2,30.12,SSW,202,4.7,-999.0,67,-99.99,,,0.00,Acu-Link.com,2013-10-10 11:08:00,
2013-10-10 07:24:00,48.2,37.4,30.12,SSW,202,5.8,-999.0,66,-99.99,,,0.00,Acu-Link.com,2013-10-10 11:24:00,
2013-10-10 07:39:00,47.1,37.1,30.13,SSW,202,5.1,-999.0,68,-99.99,,,0.00,Acu-Link.com,2013-10-10 11:39:00,
2013-10-10 07:54:00,47.3,37.7,30.14,SSW,202,8.3,-999.0,69,-99.99,,,0.00,Acu-Link.com,2013-10-10 11:54:00,
2013-10-10 08:09:00,49.1,37.5,30.13,SSW,202,6.3,-999.0,64,-99.99,,,0.00,Acu-Link.com,2013-10-10 12:09:00,
2013-10-10 08:24:00,49.5,37.4,30.13,WSW,247,6.3,-999.0,63,-99.99,,,0.00,Acu-Link.com,2013-10-10 12:24:00,
2013-10-10 08:40:00,49.5,37.8,30.13,West,270,2.2,-999.0,64,-99.99,,,0.00,Acu-Link.com,2013-10-10 12:40:00,
2013-10-10 08:55:00,48.9,39.2,30.14,NNW,337,2.2,-999.0,69,-99.99,,,0.00,Acu-Link.com,2013-10-10 12:55:00,
2013-10-10 09:10:00,49.3,39.2,30.14,NW,315,1.1,-999.0,68,-99.99,,,0.00,Acu-Link.com,2013-10-10 13:10:00,
2013-10-10 09:25:00,50.4,39.0,30.14,NNW,337,2.7,-999.0,65,-99.99,,,0.00,Acu-Link.com,2013-10-10 13:25:00,
2013-10-10 09:41:00,50.9,40.3,30.14,ESE,112,0.0,-999.0,67,-99.99,,,0.00,Acu-Link.com,2013-10-10 13:41:00,
2013-10-10 09:56:00,51.4,41.2,30.14,North,0,0.0,-999.0,68,-99.99,,,0.00,Acu-Link.com,2013-10-10 13:56:00,
2013-10-10 10:11:00,52.0,40.6,30.14,ESE,112,0.0,-999.0,65,-99.99,,,0.00,Acu-Link.com,2013-10-10 14:11:00,
2013-10-10 10:26:00,52.5,42.3,30.14,ESE,112,1.6,-999.0,68,-99.99,,,0.00,Acu-Link.com,2013-10-10 14:26:00,
2013-10-10 10:41:00,52.5,43.4,30.14,South,180,0.0,-999.0,71,-99.99,,,0.00,Acu-Link.com,2013-10-10 14:41:00,
2013-10-10 10:57:00,53.6,44.4,30.14,South,180,0.0,-999.0,71,-99.99,,,0.00,Acu-Link.com,2013-10-10 14:57:00,
2013-10-10 11:12:00,54.5,44.5,30.14,ESE,112,1.6,-999.0,69,-99.99,,,0.00,Acu-Link.com,2013-10-10 15:12:00,
2013-10-10 11:27:00,54.9,43.7,30.14,SE,135,0.0,-999.0,66,-99.99,,,0.00,Acu-Link.com,2013-10-10 15:27:00,
2013-10-10 11:42:00,55.8,44.2,30.13,SE,135,1.6,-999.0,65,-99.99,,,0.00,Acu-Link.com,2013-10-10 15:42:00,
2013-10-10 11:57:00,56.8,44.4,30.13,ESE,112,2.2,-999.0,63,-99.99,,,0.00,Acu-Link.com,2013-10-10 15:57:00,
2013-10-10 12:13:00,57.7,44.8,30.13,SE,135,1.6,-999.0,62,-99.99,,,0.00,Acu-Link.com,2013-10-10 16:13:00,
2013-10-10 12:28:00,58.8,46.7,30.13,ESE,112,2.7,-999.0,64,-99.99,,,0.00,Acu-Link.com,2013-10-10 16:28:00,
2013-10-10 12:43:00,59.4,45.5,30.13,ESE,112,3.8,-999.0,60,-99.99,,,0.00,Acu-Link.com,2013-10-10 16:43:00,
2013-10-10 12:58:00,59.5,42.9,30.12,ESE,112,2.7,-999.0,54,-99.99,,,0.00,Acu-Link.com,2013-10-10 16:58:00,
2013-10-10 13:13:00,59.4,42.7,30.11,SE,135,3.1,-999.0,54,-99.99,,,0.00,Acu-Link.com,2013-10-10 17:13:00,
2013-10-10 13:29:00,59.5,42.9,30.11,ESE,112,2.7,-999.0,54,-99.99,,,0.00,Acu-Link.com,2013-10-10 17:29:00,
2013-10-10 13:44:00,60.4,40.7,30.11,ENE,67,1.6,-999.0,48,-99.99,,,0.00,Acu-Link.com,2013-10-10 17:44:00,
2013-10-10 13:59:00,61.3,41.5,30.09,ESE,112,2.7,-999.0,48,-99.99,,,0.00,Acu-Link.com,2013-10-10 17:59:00,
2013-10-10 14:14:00,61.5,38.8,30.08,ESE,112,2.2,-999.0,43,-99.99,,,0.00,Acu-Link.com,2013-10-10 18:14:00,
2013-10-10 14:30:00,62.6,41.5,30.07,ESE,112,2.7,-999.0,46,-99.99,,,0.00,Acu-Link.com,2013-10-10 18:30:00,
2013-10-10 14:45:00,62.2,40.1,30.07,ESE,112,2.2,-999.0,44,-99.99,,,0.00,Acu-Link.com,2013-10-10 18:45:00,
2013-10-10 15:00:00,61.9,39.1,30.07,ESE,112,1.6,-999.0,43,-99.99,,,0.00,Acu-Link.com,2013-10-10 19:00:00,
2013-10-10 15:15:00,62.8,41.1,30.07,East,90,2.2,-999.0,45,-99.99,,,0.00,Acu-Link.com,2013-10-10 19:15:00,
2013-10-10 15:30:00,63.5,41.8,30.07,ESE,112,2.7,-999.0,45,-99.99,,,0.00,Acu-Link.com,2013-10-10 19:30:00,
2013-10-10 15:46:00,64.8,38.6,30.07,ESE,112,3.8,-999.0,38,-99.99,,,0.00,Acu-Link.com,2013-10-10 19:46:00,
2013-10-10 16:01:00,63.3,41.0,30.06,ESE,112,2.2,-999.0,44,-99.99,,,0.00,Acu-Link.com,2013-10-10 20:01:00,
2013-10-10 16:16:00,63.3,42.2,30.06,East,90,1.1,-999.0,46,-99.99,,,0.00,Acu-Link.com,2013-10-10 20:16:00,
2013-10-10 16:31:00,63.1,42.0,30.06,ESE,112,2.7,-999.0,46,-99.99,,,0.00,Acu-Link.com,2013-10-10 20:31:00,
2013-10-10 16:46:00,62.6,42.1,30.06,East,90,1.6,-999.0,47,-99.99,,,0.00,Acu-Link.com,2013-10-10 20:46:00,
2013-10-10 17:02:00,62.4,39.6,30.06,ESE,112,2.2,-999.0,43,-99.99,,,0.00,Acu-Link.com,2013-10-10 21:02:00,
2013-10-10 17:17:00,62.8,42.2,30.06,ESE,112,2.7,-999.0,47,-99.99,,,0.00,Acu-Link.com,2013-10-10 21:17:00,
2013-10-10 17:32:00,62.2,43.9,30.06,ESE,112,2.2,-999.0,51,-99.99,,,0.00,Acu-Link.com,2013-10-10 21:32:00,
2013-10-10 17:47:00,64.4,43.7,30.06,East,90,2.2,-999.0,47,-99.99,,,0.00,Acu-Link.com,2013-10-10 21:47:00,
2013-10-10 18:02:00,64.6,43.9,30.06,ENE,67,1.1,-999.0,47,-99.99,,,0.00,Acu-Link.com,2013-10-10 22:02:00,
2013-10-10 18:18:00,59.2,44.0,30.06,ENE,67,0.0,-999.0,57,-99.99,,,0.00,Acu-Link.com,2013-10-10 22:18:00,
2013-10-10 18:33:00,57.4,43.6,30.06,West,270,0.0,-999.0,60,-99.99,,,0.00,Acu-Link.com,2013-10-10 22:33:00,
2013-10-10 18:48:00,55.4,43.0,30.06,WNW,292,0.0,-999.0,63,-99.99,,,0.00,Acu-Link.com,2013-10-10 22:48:00,
2013-10-10 19:03:00,53.6,42.9,30.06,West,270,0.0,-999.0,67,-99.99,,,0.00,Acu-Link.com,2013-10-10 23:03:00,
2013-10-10 19:19:00,52.2,42.3,30.06,West,270,0.0,-999.0,69,-99.99,,,0.00,Acu-Link.com,2013-10-10 23:19:00,
2013-10-10 19:34:00,51.8,42.0,30.06,South,180,0.0,-999.0,69,-99.99,,,0.00,Acu-Link.com,2013-10-10 23:34:00,
2013-10-10 19:49:00,51.1,42.7,30.06,West,270,0.0,-999.0,73,-99.99,,,0.00,Acu-Link.com,2013-10-10 23:49:00,
2013-10-10 20:04:00,50.7,42.4,30.05,NW,315,0.0,-999.0,73,-99.99,,,0.00,Acu-Link.com,2013-10-11 00:04:00,
2013-10-10 20:19:00,50.4,42.4,30.05,South,180,0.0,-999.0,74,-99.99,,,0.00,Acu-Link.com,2013-10-11 00:19:00,
2013-10-10 20:35:00,50.4,42.7,30.05,SW,225,0.0,-999.0,75,-99.99,,,0.00,Acu-Link.com,2013-10-11 00:35:00,
2013-10-10 20:50:00,50.0,42.7,30.05,West,270,0.0,-999.0,76,-99.99,,,0.00,Acu-Link.com,2013-10-11 00:50:00,
2013-10-10 21:05:00,49.8,42.9,30.04,West,270,0.0,-999.0,77,-99.99,,,0.00,Acu-Link.com,2013-10-11 01:05:00,
2013-10-10 21:20:00,50.4,43.1,30.04,SSE,157,0.0,-999.0,76,-99.99,,,0.00,Acu-Link.com,2013-10-11 01:20:00,
2013-10-10 21:35:00,50.9,43.3,30.05,West,270,0.0,-999.0,75,-99.99,,,0.00,Acu-Link.com,2013-10-11 01:35:00,
2013-10-10 21:51:00,50.0,43.1,30.05,South,180,0.0,-999.0,77,-99.99,,,0.00,Acu-Link.com,2013-10-11 01:51:00,
2013-10-10 22:06:00,49.6,43.1,30.05,WSW,247,0.0,-999.0,78,-99.99,,,0.00,Acu-Link.com,2013-10-11 02:06:00,
2013-10-10 22:21:00,48.9,43.0,30.05,SE,135,0.0,-999.0,80,-99.99,,,0.00,Acu-Link.com,2013-10-11 02:21:00,
2013-10-10 22:36:00,49.1,42.9,30.04,SSW,202,0.0,-999.0,79,-99.99,,,0.00,Acu-Link.com,2013-10-11 02:36:00,
2013-10-10 22:51:00,48.4,42.5,30.03,SSW,202,0.0,-999.0,80,-99.99,,,0.00,Acu-Link.com,2013-10-11 02:51:00,
2013-10-10 23:07:00,47.1,42.2,30.03,West,270,0.0,-999.0,83,-99.99,,,0.00,Acu-Link.com,2013-10-11 03:07:00,
2013-10-10 23:22:00,46.6,42.6,30.03,ESE,112,0.0,-999.0,86,-99.99,,,0.00,Acu-Link.com,2013-10-11 03:22:00,
2013-10-10 23:37:00,47.1,42.8,30.03,SE,135,1.1,-999.0,85,-99.99,,,0.00,Acu-Link.com,2013-10-11 03:37:00,
2013-10-10 23:52:00,48.2,43.0,30.02,SE,135,0.0,-999.0,82,-99.99,,,0.00,Acu-Link.com,2013-10-11 03:52:00,